Location: Crassier
(46.3748°N, 6.1655°E)
Time: 09:46:46
(UTC+00:00)

Daily predictions for brighter satellites

Satellite Brightness Start Highest point End
(mag) Time Altitude Azimuth Time Altitude Azimuth Time Altitude Azimuth
Cosmos 2219 Rocket 3.5 18:22:37 10° SW 18:28:03 46° WNW 18:33:31 10° NNE
SL-14 R/B 4.3 18:26:25 10° NNE 18:29:57 28° ENE 18:33:26 10° SE
KORONAS-FOTON 3.7 18:27:33 10° N 18:31:23 68° E 18:35:09 10° SSE
COSMO-SKYMED 1 4.4 18:28:23 10° N 18:32:24 37° WNW 18:36:24 10° SW
STARLINK-1109 3.8 18:28:57 10° WNW 18:32:57 59° NNE 18:36:58 10° ESE
STARLINK-1246 4.0 18:29:39 10° SSW 18:33:30 43° SE 18:37:22 10° ENE
Cosmos 1943 Rocket 3.5 18:32:29 10° N 18:36:48 23° NE 18:41:07 10° E
Cosmos 1980 3.8 18:31:49 10° SSW 18:37:31 90° WNW 18:43:15 10° NNE
STARLINK-1091 3.8 18:33:37 10° WNW 18:37:38 62° NNE 18:41:39 10° ESE
CZ-2D R/B 4.5 18:34:07 10° S 18:37:48 46° W 18:41:30 10° NNW
Cosmos 1766 3.3 18:34:00 10° S 18:37:56 65° E 18:41:54 10° NNE
S3M 4.0 18:33:28 10° S 18:39:47 72° E 18:46:11 10° NNE
Ariane Rocket 3.0 18:36:42 10° SSE 18:41:43 65° ENE 18:46:46 10° N
Cosmos 2084 4.4 18:37:31 10° WSW 18:41:54 53° NW 18:46:18 10° NNE
YAOGAN 1 4.0 18:37:53 10° S 18:41:58 41° W 18:46:06 10° NNW
STARLINK-1224 3.8 18:38:31 10° SW 18:42:25 50° SE 18:46:20 10° ENE
BREEZE-M DEB (TANK) 4.0 18:29:08 10° WNW 18:43:27 60° SW 18:47:00 10° SE
Cosmos 1386 Rocket 4.4 18:37:40 10° N 18:43:45 75° E 18:49:44 10° SSE
SL-08 ROCKET BODY 4.4 18:37:48 10° N 18:43:58 74° E 18:49:59 10° SSE
Cosmos 1455 Rocket 3.1 18:40:42 10° S 18:44:54 53° E 18:49:10 10° NNE
STARLINK-1225 3.7 18:43:10 10° SW 18:47:06 54° SE 18:51:03 10° ENE
Cosmos 1110 Rocket 4.0 18:42:23 10° NNW 18:47:41 82° ENE 18:52:53 10° SSE
Cosmos 332 Rocket 4.2 18:44:00 10° NNW 18:48:53 69° WSW 18:53:46 10° S
STARLINK-1203 3.5 18:45:09 10° SW 18:49:02 60° SE 18:52:55 10° ENE
STARLINK-1072 3.6 18:46:48 10° WNW 18:50:49 74° NNE 18:54:14 14° ESE
SL-16 R/B 2.5 18:45:46 10° S 18:51:03 43° ESE 18:56:22 10° NE
Cosmos 1892 Rocket 3.6 18:46:55 10° N 18:51:25 88° W 18:55:53 10° S
Cosmos 2333 Rocket 4.2 18:46:35 10° WSW 18:51:39 32° NW 18:56:42 10° NNE
STARLINK-1230 3.6 18:47:46 10° SW 18:51:44 58° SE 18:55:42 10° ENE
Cosmos 1626 Rocket 4.2 18:48:54 10° N 18:52:58 34° ENE 18:56:57 10° SE
USA 186 2.0 18:50:46 10° SSE 18:54:09 56° ENE 18:57:30 10° N
STARLINK-1234 3.1 18:52:04 10° WSW 18:55:03 65° NNW 18:58:02 10° NE
Cosmos 1953 4.0 18:53:54 14° ESE 18:55:04 15° E 18:57:25 10° NE
ARGOS Delta rocket 4.0 18:50:06 10° SSE 18:55:10 82° ENE 19:00:33 10° N
STARLINK-1096 3.5 18:51:15 10° WNW 18:55:16 78° NNE 18:58:31 15° ESE
Cosmos 1626 2.3 18:52:20 10° N 18:55:56 47° ENE 18:59:31 10° SSE
STARLINK-1243 3.6 18:52:25 10° SW 18:56:24 63° SE 19:00:25 10° ENE
Okean 1-7 Rocket 3.6 18:54:54 10° N 18:59:20 84° W 19:03:43 10° S
STARLINK-1079 3.5 18:55:44 10° WNW 18:59:45 83° NNE 19:02:49 17° ESE
Cosmos 1602 Rocket 4.3 18:56:27 10° N 19:00:30 33° ENE 19:03:54 13° SE
STARLINK-1236 3.5 18:57:04 10° SW 19:01:04 68° SE 19:05:05 10° ENE
ATLAS 2AS CENTAUR R/B 4.3 18:57:37 10° NW 19:04:01 26° NNE 19:10:04 10° ENE
STARLINK-1116 3.5 19:00:12 10° WNW 19:04:14 88° NE 19:07:08 18° ESE
H-2A R/B 2.1 19:00:41 10° SSE 19:06:02 86° ENE 19:11:16 10° NNW
STARLINK-1111 4.5 19:05:31 10° NW 19:09:27 41° NNE 19:12:19 17° E
Aureole 2 Rocket 4.2 19:07:27 10° NNE 19:09:45 16° NE 19:10:31 15° ENE
Cosmos 883 Rocket 4.4 19:03:51 10° S 19:10:00 74° E 19:16:16 10° NNE
STARLINK-1118 4.5 19:08:32 10° W 19:10:07 17° SW 19:11:31 11° S
STARLINK-1269 3.5 19:06:26 10° SW 19:10:28 78° SSE 19:14:25 11° ENE
Cosmos 1544 Rocket 3.5 19:07:56 10° S 19:12:19 78° E 19:16:46 10° NNE
ERBS 4.3 19:09:34 10° W 19:12:32 27° NNW 19:15:30 10° NE
STARLINK-1094 3.5 19:09:11 10° WNW 19:13:12 82° SSW 19:15:46 21° SE
STARLINK-1073 4.4 19:10:30 10° NW 19:14:28 42° NNE 19:17:06 19° E
STARLINK-1200 3.5 19:11:06 10° SW 19:15:09 84° SSE 19:18:57 12° ENE
Cosmos 2297 3.7 19:09:45 10° NNW 19:15:27 84° ENE 19:20:56 11° SSE
USA 234 3.3 19:09:02 10° ENE 19:15:30 61° SE 19:21:57 10° SW
CZ-2C R/B 4.0 19:11:25 10° NNE 19:16:02 48° E 19:20:34 10° S
STARLINK-1117 3.6 19:13:42 10° WNW 19:17:43 77° SW 19:20:07 23° SE
STARLINK-1121 4.3 19:15:29 10° NW 19:19:28 44° NNE 19:21:53 21° E
STARLINK-1192 3.5 19:15:45 10° WSW 19:19:48 89° SSE 19:23:24 13° ENE
Cosmos 2237 Rocket 3.3 19:15:57 10° SW 19:21:21 47° WNW 19:26:48 10° NNE
STARLINK-1078 3.6 19:18:12 10° WNW 19:22:12 72° SW 19:24:26 25° SE
STARLINK-1106 4.3 19:20:27 10° NW 19:24:27 46° NNE 19:26:39 23° E
STARLINK-1244 3.5 19:20:32 10° WSW 19:24:35 86° NNW 19:28:01 14° ENE
STARLINK-1201 3.7 19:21:49 10° WSW 19:25:01 53° NNW 19:27:31 15° NE
Cosmos 1302 Rocket 4.0 19:19:56 10° NNW 19:25:14 83° ENE 19:29:43 15° SSE
STARLINK-1108 3.7 19:22:44 10° WNW 19:26:44 67° SW 19:28:47 27° SE
Cosmos 2278 Rocket 4.3 19:22:43 10° NW 19:27:16 25° WSW 19:31:48 10° SSW
CZ-2C R/B 3.0 19:23:13 10° NNE 19:28:03 38° E 19:32:38 11° SSE
Cosmos 1269 Rocket 4.1 19:23:13 10° SSW 19:28:30 79° WNW 19:33:51 10° NNE
Cosmos 2184 Rocket 4.5 19:22:44 10° N 19:28:42 41° ENE 19:32:14 22° SE
Cosmos 1758 Rocket 4.4 19:25:17 10° N 19:29:11 30° ENE 19:30:09 27° E
STARLINK-1138 3.6 19:25:14 10° WSW 19:29:17 81° NNW 19:32:32 16° ENE
STARLINK-1112 4.2 19:25:27 10° NW 19:29:28 48° NNE 19:31:27 26° E
STARLINK-1209 4.1 19:27:42 10° W 19:30:25 36° NNW 19:32:14 17° NE
STARLINK-1066 4.1 19:28:08 10° WNW 19:31:02 34° SW 19:32:18 24° S
STARLINK-1071 3.8 19:27:15 10° WNW 19:31:14 62° SW 19:33:08 29° SE
STARLINK-1228 4.1 19:28:42 10° W 19:31:23 35° NNW 19:33:09 18° NE
STARLINK-1081 4.1 19:28:36 10° WNW 19:31:28 34° SW 19:32:41 24° S
STARLINK-1070 4.1 19:29:04 10° WNW 19:31:55 33° SW 19:33:06 24° S
STARLINK-1124 3.9 19:28:09 10° WNW 19:32:15 62° SW 19:34:14 28° SE
STARLINK-1069 4.2 19:29:28 10° WNW 19:32:22 33° SW 19:33:34 24° S
STARLINK-1085 4.2 19:29:55 10° WNW 19:32:48 33° SW 19:34:00 24° S
STARLINK-1086 4.2 19:30:26 10° WNW 19:33:17 32° SW 19:34:25 24° S
STARLINK-1095 4.2 19:30:52 10° WNW 19:33:43 32° SW 19:34:50 24° S
STARLINK-1143 3.7 19:30:02 10° WSW 19:34:04 76° NNW 19:37:08 17° ENE
STARLINK-1077 4.2 19:31:19 10° WNW 19:34:09 32° SW 19:35:16 24° S
ARGOS 3.5 19:28:48 10° S 19:34:10 66° WSW 19:39:34 10° NNW
STARLINK-1128 4.1 19:30:26 10° NW 19:34:29 50° NNE 19:36:15 29° E
STARLINK-1075 4.2 19:31:48 10° WNW 19:34:36 31° SW 19:35:42 24° S
STARLINK-1093 4.3 19:32:12 10° WNW 19:35:03 32° SW 19:36:11 24° S
SL-8 R/B 3.9 19:30:36 10° W 19:35:22 68° N 19:38:02 26° E
Cosmos 2251 Rocket 4.0 19:30:34 10° SSE 19:35:25 36° ESE 19:40:18 10° NE
STARLINK-1074 4.3 19:32:38 10° WNW 19:35:30 31° SW 19:36:36 24° S
STARLINK-1110 3.9 19:31:47 10° WNW 19:35:45 58° SW 19:37:29 30° SSE
STARLINK-1087 4.3 19:33:09 10° WNW 19:35:57 31° SW 19:37:00 24° S
STARLINK-1088 4.3 19:33:36 10° WNW 19:36:24 30° SW 19:37:26 24° S
STARLINK-1115 4.3 19:34:01 10° WNW 19:36:51 31° SW 19:37:55 24° S
STARLINK-1076 4.3 19:34:28 10° WNW 19:37:17 30° SW 19:38:20 24° S
STARLINK-1092 4.3 19:34:56 10° WNW 19:37:45 30° SW 19:38:47 24° S
SL-24 R/B 4.0 19:33:17 10° NNE 19:37:58 70° E 19:42:01 10° S
STARLINK-1080 4.4 19:35:26 10° WNW 19:38:12 29° SW 19:39:10 24° S
STARLINK-1090 4.4 19:35:52 10° WNW 19:38:38 29° SW 19:39:36 24° S
STARLINK-1089 4.4 19:36:20 10° WNW 19:39:05 29° SW 19:40:02 24° S
STARLINK-1113 4.0 19:35:25 10° NW 19:39:29 53° NNE 19:41:02 33° E
STARLINK-1107 4.4 19:36:47 10° WNW 19:39:32 29° SW 19:40:28 24° S
Cosmos 1470 2.8 19:37:19 10° SSW 19:41:12 80° W 19:45:06 10° N
STARLINK-1119 3.9 19:40:23 10° NW 19:44:28 56° NNE 19:45:48 37° E
STARLINK-1241 3.8 19:40:32 10° WSW 19:44:31 66° NNW 19:47:06 21° NE
STARLINK-1233 4.1 19:41:52 10° W 19:44:51 39° NNW 19:46:21 23° NE
STARLINK-1122 4.1 19:40:59 10° WNW 19:44:53 49° SW 19:46:17 33° SSE
STARLINK-1212 4.2 19:42:21 10° W 19:45:18 38° NNW 19:46:46 23° NE
SL-08 RB Rocket 4.0 19:40:53 10° S 19:45:20 65° WSW 19:49:54 10° NNW
Cosmos 2315 Rocket 4.2 19:39:07 10° SSW 19:45:24 78° W 19:51:49 10° N
STARLINK-1105 4.2 19:42:47 10° W 19:45:46 38° NNW 19:47:13 23° NE
STARLINK-1206 4.2 19:43:17 10° W 19:46:14 38° NNW 19:47:38 24° NNE
SJ-6B 3.8 19:42:35 10° S 19:46:30 47° W 19:50:30 10° NNW
STARLINK-1247 4.2 19:43:44 10° W 19:46:41 38° NNW 19:48:03 24° NNE
MetOp-A 4.1 19:42:29 15° SSE 19:46:55 88° WSW 19:52:19 10° NNW
STARLINK-1227 4.2 19:44:08 10° W 19:47:06 38° NNW 19:48:31 24° NNE
Resurs 1-3 3.5 19:44:44 26° SSE 19:47:13 85° ENE 19:51:38 10° NNW
STARLINK-1218 4.2 19:44:38 10° W 19:47:35 37° NNW 19:48:55 24° NNE
ISS -3.0 19:44:21 10° WNW 19:47:36 44° NNE 19:48:11 39° NE
STARLINK-1226 4.2 19:45:06 10° W 19:48:03 37° NNW 19:49:22 24° NNE
STARLINK-1254 4.2 19:45:30 10° W 19:48:27 37° NNW 19:49:48 24° NNE
STARLINK-1215 4.2 19:46:00 10° W 19:48:57 37° NNW 19:50:14 25° NNE
Cosmos 1758 3.5 19:45:02 10° SSW 19:49:06 73° W 19:53:13 10° N
STARLINK-1239 3.9 19:45:08 10° WSW 19:49:07 63° NNW 19:51:30 23° NE
ERS-1 Rocket 4.4 19:48:48 20° ENE 19:49:10 20° ENE 19:52:47 10° NNE
STARLINK-1231 4.2 19:46:26 10° W 19:49:23 37° NNW 19:50:38 25° NNE
STARLINK-1114 3.9 19:45:23 10° WNW 19:49:29 59° NNE 19:50:36 42° E
STARLINK-1126 4.2 19:45:38 10° WNW 19:49:30 46° SW 19:50:44 34° S
STARLINK-1232 4.2 19:47:21 10° W 19:50:18 36° NNW 19:51:31 25° NNE
STARLINK-1217 4.3 19:47:49 10° W 19:50:45 36° NNW 19:51:58 25° NNE
STARLINK-1208 4.3 19:48:14 10° W 19:51:11 36° NNW 19:52:25 25° NNE
STARLINK-1229 4.3 19:48:43 10° W 19:51:39 36° NNW 19:52:48 26° NNE
STARLINK-1271 4.3 19:49:11 10° W 19:52:06 36° NNW 19:53:17 26° NNE
BREEZE-M DEB (TANK) 3.6 19:45:53 10° WNW 19:52:19 62° N 19:53:09 44° ENE
STARLINK-1270 4.3 19:49:39 10° W 19:52:34 35° NNW 19:53:42 26° NNE
IRIDIUM 104 4.2 19:47:35 10° N 19:52:51 82° E 19:56:26 21° S
BREEZE M DEB (TANK) 4.1 19:42:59 10° SW 19:52:57 38° SSE 19:53:49 36° SE
CZ-2C R/B 4.2 19:48:10 10° SSW 19:52:58 41° W 19:57:34 10° NNW
STARLINK-1154 4.3 19:50:05 10° W 19:53:00 35° NNW 19:54:07 26° NNE
STARLINK-1240 4.0 19:49:45 10° WSW 19:53:44 59° NNW 19:55:56 25° NE
STARLINK-1197 4.3 19:51:00 10° W 19:53:54 35° NNW 19:54:59 26° NNE
STARLINK-1082 4.3 19:50:13 10° WNW 19:54:03 42° SW 19:55:08 34° S
STARLINK-1189 4.3 19:51:27 10° W 19:54:22 35° NNW 19:55:26 26° NNE
STARLINK-1130 (DARKSAT) 3.8 19:50:20 10° WNW 19:54:28 62° NNE 19:55:23 47° E
Resurs 01 Rocket 1.5 19:53:04 40° SSE 19:54:35 72° ENE 19:59:00 10° N
STARLINK-1187 4.4 19:52:22 10° W 19:55:15 33° NNW 19:56:20 25° NNE
STARLINK-1188 4.3 19:52:22 10° W 19:55:16 35° NNW 19:56:17 27° NNE
STARLINK-1198 4.3 19:52:36 10° W 19:55:30 34° NNW 19:56:31 27° NNE
Cosmos 2369 Rocket 2.3 19:50:12 10° NNW 19:55:51 59° ENE 19:57:50 38° ESE
Abrixas rocket 4.3 19:53:33 10° SW 19:54:14 15° SSW 19:54:14 15° SSW
STARLINK-1199 4.4 19:54:19 10° W 19:57:14 34° NNW 19:58:13 27° NNE
STARLINK-1191 4.4 19:54:47 10° W 19:57:42 34° NNW 19:58:39 27° NNE
STARLINK-1210 4.4 19:55:14 10° W 19:58:08 34° NNW 19:59:05 27° NNE
STARLINK-1216 4.1 19:54:25 10° WSW 19:58:23 56° NNW 20:00:23 26° NE
STARLINK-1100 4.4 19:54:48 10° WNW 19:58:36 39° SW 19:59:31 34° S
STARLINK-1221 4.4 19:55:41 10° W 19:58:37 34° NNW 19:59:32 27° NNE
STARLINK-1219 4.4 19:56:09 10° W 19:59:03 34° NNW 19:59:58 28° NNE
STARLINK-1084 3.7 19:55:19 10° WNW 19:59:27 66° NNE 20:00:09 54° ENE
STARLINK-1222 4.4 19:56:36 10° W 19:59:30 33° NNW 20:00:22 28° NNE
STARLINK-1211 4.4 19:57:03 10° W 19:59:57 33° NNW 20:00:49 28° NNE
STARLINK-1214 4.4 19:57:31 10° W 20:00:25 33° NNW 20:01:15 28° NNE
STARLINK-1245 4.4 19:58:01 10° W 20:00:53 33° NNW 20:01:40 28° NNE
STARLINK-1238 4.4 19:58:26 10° W 20:01:20 33° NNW 20:02:07 28° NNE
Meteor 2-15 Rocket 4.5 19:55:22 10° SSW 20:01:26 81° W 20:07:33 10° N
IRIDIUM 114 4.3 19:56:45 10° N 20:02:00 84° W 20:05:35 21° S
STARLINK-1205 4.4 19:59:23 10° W 20:02:15 32° NNW 20:02:59 28° NNE
STARLINK-1204 4.4 19:59:49 10° W 20:02:41 32° NNW 20:03:23 29° NNE
STARLINK-1237 4.2 19:59:06 10° W 20:03:03 54° NNW 20:04:52 28° NE
STARLINK-1098 3.6 20:00:17 10° WNW 20:04:25 70° NNE 20:04:55 62° ENE
SPOT 3 Rocket 4.1 20:00:43 14° S 20:05:10 56° W 20:10:19 10° NNW
Cosmos 1726 2.6 20:06:30 47° NE 20:06:30 47° NE 20:09:21 10° NNE
Landsat 7 4.5 20:06:34 36° ENE 20:06:36 36° ENE 20:10:56 10° N
STARLINK-1202 4.3 20:03:45 10° W 20:07:41 51° NNW 20:09:18 31° NE
Meteor 1-21 Rocket 4.2 20:02:52 10° NNW 20:08:28 80° W 20:11:31 28° S
Nadezhda 1 Rocket 4.2 20:06:17 36° SE 20:08:29 52° E 20:14:38 10° NNE
STARLINK-1123 3.5 20:05:17 10° WNW 20:09:26 74° NNE 20:09:44 70° ENE
Cosmos 2228 3.8 20:11:03 36° NE 20:11:03 36° NE 20:13:59 10° NNE
STARLINK-1246 4.4 20:08:53 10° W 20:12:50 49° NNW 20:14:18 32° NE
MOS 1 Rocket 3.6 20:07:52 10° NNE 20:13:06 85° WNW 20:18:30 10° SSW
STARLINK-1097 3.5 20:10:14 10° WNW 20:14:23 79° NNE 20:14:29 78° NE
Cosmos 292 Rocket 3.7 20:13:21 10° NNW 20:18:09 80° WSW 20:19:07 57° S
Cosmos 1943 3.6 20:19:28 43° ENE 20:19:28 43° ENE 20:23:55 10° NE
STARLINK-1099 3.5 20:15:13 10° WNW 20:19:17 83° N 20:19:17 83° N
Cosmos 1943 Rocket 2.2 20:15:35 10° NNW 20:21:06 72° WSW 20:22:51 44° S
NOSS 3-4 (A) 4.5 20:17:06 10° NNW 20:23:34 42° NE 20:25:57 33° E
Cosmos 2074 Rocket 4.0 20:17:18 10° N 20:23:36 80° W 20:26:45 32° S
NOSS 3-4 (C) 4.5 20:17:12 10° NNW 20:23:39 42° NE 20:26:03 33° E
STARLINK-1104 3.7 20:20:13 10° WNW 20:24:04 76° WNW 20:24:04 76° WNW
Cosmos 1328 4.4 20:23:42 10° N 20:26:45 49° NNE 20:26:45 49° NNE
STARLINK-1144 3.8 20:25:10 10° WNW 20:28:50 68° WNW 20:28:50 68° WNW
Cosmos 1953 3.3 20:29:29 28° SW 20:31:05 44° WNW 20:34:54 10° N
Meteor 2-10 4.2 20:28:34 25° SSW 20:31:43 76° WNW 20:37:16 10° N
SPOT 1/Viking Rocket 3.7 20:32:06 56° ENE 20:32:06 56° ENE 20:37:08 10° N
NOSS 3-3 (A) 3.7 20:26:57 10° SSW 20:32:45 71° SE 20:39:17 10° NE
NOSS 3-3 (C) 3.7 20:27:04 10° SSW 20:32:51 70° SE 20:39:24 10° NE
Spot 2 Rocket 3.3 20:33:06 73° SSE 20:33:37 87° ENE 20:38:46 10° NNW
STARLINK-1103 4.0 20:30:09 10° WNW 20:33:37 60° WNW 20:33:37 60° WNW
SL-16 R/B 3.8 20:30:07 10° WSW 20:35:16 35° NW 20:40:26 10° NNE
Cosmos 2084 Rocket 3.8 20:31:05 10° NW 20:35:19 63° WSW 20:35:19 63° WSW
Cosmos 1610 Rocket 4.4 20:31:23 10° N 20:37:39 87° E 20:39:03 57° SSE
STARLINK-1101 4.3 20:35:09 10° WNW 20:38:25 52° W 20:38:25 52° W
IGS 5A 4.3 20:42:15 44° N 20:42:15 44° N 20:45:11 10° N
Aureole 2 Rocket 4.2 20:40:27 10° NW 20:42:44 31° WNW 20:42:44 31° WNW
Terra 3.1 20:49:36 30° NNE 20:49:36 30° NNE 20:52:34 10° N
Cosmos 2341 Rocket 4.0 20:47:29 10° N 20:53:50 65° E 20:53:51 65° E
Cosmos 1726 Rocket 4.5 20:55:09 45° NNW 20:55:09 45° NNW 20:58:21 10° N
ATLAS 2AS CENTAUR R/B 2.9 20:48:59 10° NW 20:56:37 62° NE 20:57:41 56° E
Cosmos 1603 3.8 20:53:25 27° SW 20:56:37 72° WNW 21:02:15 10° NNE
USA 234 3.8 20:52:08 10° NE 20:58:29 55° NNW 21:04:49 10° W
Aureole 1 Rocket 4.2 21:07:14 72° SE 21:07:40 74° ESE 21:14:24 10° NNE
CZ-2C R/B 4.2 21:03:44 10° N 21:08:15 31° WNW 21:12:44 10° SW
COSMOS 2455 3.6 21:05:48 10° NNW 21:11:09 40° NE 21:11:09 40° NE
Meteor 1-11 4.5 21:06:14 10° NNW 21:11:58 63° W 21:12:06 63° WSW
Cosmos 2218 Rocket 4.3 21:16:23 10° N 21:21:26 56° NNE 21:21:26 56° NNE
Cosmos 1656 Rocket 4.1 21:17:46 10° NNW 21:22:37 57° WNW 21:22:37 57° WNW
ERS-1 Rocket 3.9 21:28:47 46° NW 21:28:47 46° NW 21:32:30 10° NNW
Resurs 01 Rocket 4.3 21:30:38 12° WSW 21:31:35 13° W 21:33:30 10° WNW
Cosmos 2181 Rocket 4.4 21:33:10 58° NNE 21:33:10 58° NNE 21:38:05 10° N
SPOT 5 4.4 21:35:19 29° NNW 21:35:19 29° NNW 21:37:34 10° NNW
Cosmos 2369 Rocket 3.9 21:35:02 10° NW 21:39:26 24° WSW 21:39:39 23° WSW
CZ-4C R/B 4.5 21:58:15 10° NNW 22:03:32 24° NNE 22:06:33 19° NE
Mayak 1.8 22:06:43 10° N 22:06:55 11° N 22:06:55 11° N
NOSS 3-4 (A) 4.4 22:07:55 10° NW 22:13:24 51° W 22:13:24 51° W
NOSS 3-4 (C) 4.4 22:08:01 10° NW 22:13:29 52° W 22:13:29 52° W
Terra 4.3 22:28:30 18° NW 22:28:30 18° NW 22:30:05 10° NW
Cosmos 1697 Rocket 4.5 22:22:58 10° NNW 22:26:03 26° NNE 22:26:03 26° NNE
ATLAS 2AS CENTAUR R/B 4.1 22:40:35 10° NW 22:45:08 30° W 22:45:08 30° W
Cosmos 1980 Rocket 4.2 22:48:06 10° N 22:50:55 23° NNE 22:50:55 23° NNE
